Vorticity
5 -1 1 6 3 6 7 9 5 6 7 6 10 11 8 14 13 12 17 9 7 1 3 2 1 2 5
12 -5 8 9 7 3 6 7 6 6 8 12 8 8 15 12 8 11 11 7 4 -2 3 -1 -1 4 7
14 1 4 5 7 6 7 11 8 6 12 5 4 15 17 5 10 11 11 3 2 4 6 4 7 7 7
-3 -0 2 6 9 7 7 10 6 11 11 -1 15 11 12 8 11 5 4 4 5 5 6 6 8 6 5
12 2 2 12 6 11 1 1 8 11 4 11 7 7 6 11 3 3 3 1 6 9 8 7 6 6 5
2 5 10 10 12 2 7 8 10 8 9 11 11 10 9 6 4 3 3 10 9 7 8 6 5 6 5
-4 14 14 12 -0 2 4 13 7 9 9 9 13 8 5 5 3 8 12 8 10 9 8 5 6 5 7
10 8 13 4 4 12 16 8 6 7 10 9 8 7 5 7 9 11 11 11 11 7 5 5 4 8 13
6 16 14 14 6 11 9 0 -0 6 13 9 5 6 13 8 12 14 10 8 5 5 3 4 8 11 26
17 12 7 4 14 9 3 5 14 11 12 5 5 10 8 9 12 9 6 4 5 3 6 12 15 25 24
7 5 14 5 9 5 3 2 -7 5 10 8 15 7 12 15 8 5 5 4 3 4 12 16 18 25 22
8 10 5 7 13 3 9 14 9 21 7 11 10 13 14 6 7 3 5 4 4 9 18 20 22 21 13
10 2 2 17 13 13 -5 14 27 12 9 17 16 12 9 7 6 5 4 0 6 11 25 23 18 14 16
15 15 20 2 8 3 1 2 13 20 17 19 10 10 6 6 5 3 6 11 15 24 27 16 12 15 15
10 6 1 -0 1 7 14 13 20 18 17 10 10 5 6 5 2 6 8 17 24 19 14 18 17 16 15
2 10 7 7 11 -1 14 21 19 18 6 7 5 5 5 9 11 7 23 26 14 11 17 16 21 13 19
-6 7 8 13 2 16 27 24 10 8 7 4 4 5 2 -0 18 10 29 11 3 10 18 17 18 14 21
Height
5801 5799 5797 5793 5790 5785 5781 5777 5772 5767 5762 5755 5749 5743 5736 5729 5723 5717 5712 5706 5700 5695 5689 5682 5674 5667 5660
5793 5791 5788 5785 5781 5777 5772 5768 5763 5757 5751 5744 5738 5732 5725 5719 5713 5707 5702 5696 5690 5684 5677 5669 5659 5651 5642
5786 5783 5780 5776 5772 5768 5763 5758 5753 5747 5740 5733 5726 5720 5714 5709 5702 5696 5691 5685 5678 5670 5662 5653 5644 5635 5625
5777 5775 5771 5767 5763 5758 5753 5748 5742 5736 5729 5722 5715 5709 5704 5697 5691 5685 5678 5671 5664 5656 5647 5638 5628 5616 5606
5768 5764 5761 5757 5753 5748 5743 5737 5730 5723 5717 5711 5705 5699 5693 5685 5679 5672 5665 5658 5650 5641 5632 5622 5611 5599 5587
5757 5755 5750 5747 5742 5737 5731 5725 5718 5712 5706 5699 5694 5687 5681 5674 5667 5660 5652 5643 5634 5625 5615 5606 5595 5581 5569
5747 5744 5740 5736 5732 5726 5721 5714 5708 5702 5695 5689 5681 5675 5669 5662 5654 5646 5637 5627 5618 5609 5599 5590 5578 5563 5549
5736 5733 5729 5726 5720 5715 5709 5704 5697 5691 5685 5678 5670 5663 5656 5649 5641 5631 5622 5612 5602 5593 5583 5572 5560 5544 5527
5726 5722 5718 5714 5708 5703 5699 5694 5687 5680 5675 5669 5662 5651 5642 5635 5628 5618 5609 5600 5588 5577 5567 5555 5544 5529 5509
5714 5711 5707 5702 5697 5693 5688 5683 5677 5670 5664 5658 5653 5646 5634 5621 5616 5607 5597 5587 5575 5562 5547 5532 5521 5510 5494
5703 5700 5696 5691 5687 5683 5679 5673 5666 5660 5653 5646 5640 5633 5625 5617 5604 5595 5585 5575 5562 5548 5530 5513 5499 5485 5478
5693 5689 5685 5681 5678 5673 5668 5662 5654 5648 5641 5634 5627 5620 5613 5606 5597 5587 5573 5560 5548 5534 5517 5499 5484 5473 5457
5684 5679 5675 5672 5667 5662 5656 5650 5643 5637 5630 5622 5614 5606 5600 5593 5586 5573 5566 5551 5533 5519 5502 5483 5471 5462 5454
5673 5670 5666 5662 5656 5651 5645 5639 5632 5625 5617 5610 5602 5595 5586 5578 5570 5559 5545 5533 5522 5506 5492 5475 5460 5448 5436
5664 5659 5655 5650 5645 5639 5633 5626 5619 5613 5607 5600 5593 5585 5574 5565 5555 5543 5532 5519 5503 5493 5483 5470 5451 5441 5429
5653 5649 5644 5639 5634 5628 5621 5614 5608 5603 5597 5591 5584 5574 5563 5547 5538 5532 5516 5506 5495 5481 5469 5459 5449 5434 5422
5642 5638 5633 5628 5622 5616 5609 5603 5598 5593 5588 5582 5574 5566 5557 5546 5526 5511 5508 5495 5486 5473 5461 5447 5437 5427 5416